Location: Newark
(49.2191°N, 12.6671°E)
Time: 07:28:09
(UTC+00:00)

Transit 4A - Pass Details

Date: 26 January 2020
Orbit: 872 x 973 km, 66.8° (Epoch: 17 February)

Event Time Altitude Azimuth Distance (km) Brightness Sun altitude
Rises 08:01:56 0° 267° (W) 3,520 10.5 8.8°
Reaches altitude 10° 08:05:03 10° 282° (WNW) 2,566 9.7 9.2°
Maximum altitude 08:09:34 22° 332° (NNW) 1,839 9.0 9.7°
Drops below altitude 10° 08:14:03 10° 22° (NNE) 2,539 10.0 10.3°
Sets 08:17:08 0° 38° (NE) 3,474 10.8 10.6°
